^^
Your Local Weather - Clay, NY Station Historical Data
Daily Summary for May 15, 2017 Units:  Metric    English   Both
« Previous Day
Next Day »
Daily Weekly Monthly Yearly Custom
  High: Low: Average:
Temperature: 16.9 °C 8.7 °C 11.9 °C
Dew Point: 9.1 °C 4.9 °C 6.6 °C
Humidity: 88% 54% 71%
Wind Speed: 9.7km/h 0km/h 4.7km/h
Wind Gust: 17.7km/h - -
Wind- - NW
Pressure: 1013.8 hPa 1005.6 hPa -
Precipitation: 0.76 mm    
Historical Graphs
 
 
Tabular Data for May 15, 2017
Time Temperature Dew Point Pressure Wind Wind Speed Wind Gust Humidity Rainfall Rate (Hourly) solar
00:05 9.7 °C 6.7 °C 1005.6 hPa NW 1.6 km/h 3.2 km/h 82% 0 mm 0 W/m2
00:12 9.8 °C 6.8 °C 1005.6 hPa WNW 3.2 km/h 3.2 km/h 82% 0 mm 0 W/m2
00:18 9.8 °C 6.9 °C 1005.6 hPa WNW 1.6 km/h 3.2 km/h 82% 0 mm 0 W/m2
00:23 9.9 °C 6.8 °C 1005.6 hPa WNW 3.2 km/h 3.2 km/h 81% 0 mm 0 W/m2
00:29 9.9 °C 6.9 °C 1005.6 hPa WNW 3.2 km/h 3.2 km/h 82% 0 mm 0 W/m2
00:35 9.9 °C 7.1 °C 1005.6 hPa West 3.2 km/h 4.8 km/h 83% 0 mm 0 W/m2
00:42 9.8 °C 7.2 °C 1005.6 hPa NNW 3.2 km/h 3.2 km/h 84% 1.78 mm 0 W/m2
00:48 9.6 °C 7.2 °C 1005.6 hPa NNW 3.2 km/h 3.2 km/h 85% 1.52 mm 0 W/m2
00:53 9.6 °C 7.4 °C 1006 hPa NNE 3.2 km/h 6.4 km/h 86% 1.02 mm 0 W/m2
00:59 9.6 °C 7.6 °C 1006 hPa NNW 4.8 km/h 6.4 km/h 87% 0 mm 0 W/m2
01:05 9.6 °C 7.6 °C 1006 hPa WNW 4.8 km/h 6.4 km/h 87% 0 mm 0 W/m2
01:12 9.6 °C 7.7 °C 1006 hPa WNW 3.2 km/h 3.2 km/h 88% 0 mm 0 W/m2
01:18 9.7 °C 7.8 °C 1006 hPa NW 4.8 km/h 9.7 km/h 88% 0 mm 0 W/m2
01:23 9.7 °C 7.8 °C 1006 hPa NNW 6.4 km/h 8 km/h 88% 0 mm 0 W/m2
01:29 9.7 °C 7.7 °C 1006 hPa NW 6.4 km/h 6.4 km/h 87% 0 mm 0 W/m2
01:35 9.8 °C 7.7 °C 1006 hPa North 6.4 km/h 12.9 km/h 87% 0 mm 0 W/m2
01:41 9.8 °C 7.6 °C 1006.3 hPa WNW 8 km/h 8 km/h 86% 0 mm 0 W/m2
01:48 9.8 °C 7.6 °C 1006.3 hPa NW 8 km/h 8 km/h 86% 0 mm 0 W/m2
01:53 9.8 °C 7.6 °C 1006.3 hPa NW 8 km/h 8 km/h 86% 0 mm 0 W/m2
01:59 9.7 °C 7.5 °C 1006.3 hPa NNW 4.8 km/h 4.8 km/h 86% 0 mm 0 W/m2
02:05 9.7 °C 7.4 °C 1006.3 hPa NW 4.8 km/h 6.4 km/h 86% 0 mm 0 W/m2
02:12 9.8 °C 7.4 °C 1006.7 hPa NW 6.4 km/h 17.7 km/h 85% 0 mm 0 W/m2
02:18 9.8 °C 7.3 °C 1006.7 hPa NW 6.4 km/h 17.7 km/h 84% 0 mm 0 W/m2
02:23 9.8 °C 7.3 °C 1006.7 hPa NW 4.8 km/h 6.4 km/h 84% 0 mm 0 W/m2
02:29 9.8 °C 7.1 °C 1006.7 hPa WNW 6.4 km/h 6.4 km/h 83% 0 mm 0 W/m2
02:31 9.8 °C 7.1 °C 1006.7 hPa NNW 6.4 km/h 6.4 km/h 83% 0 mm 0 W/m2
02:38 9.9 °C 6.9 °C 1006.7 hPa North 8 km/h 9.7 km/h 82% 0 mm 0 W/m2
02:43 9.9 °C 6.8 °C 1006.7 hPa NNW 8 km/h 8 km/h 81% 0 mm 0 W/m2
02:49 9.9 °C 6.8 °C 1006.7 hPa NNW 6.4 km/h 6.4 km/h 81% 0 mm 0 W/m2
02:55 9.8 °C 6.7 °C 1006.7 hPa WNW 8 km/h 12.9 km/h 81% 0 mm 0 W/m2
03:02 9.8 °C 6.4 °C 1007 hPa NW 8 km/h 8 km/h 79% 0 mm 0 W/m2
03:08 9.8 °C 6.3 °C 1007 hPa WNW 6.4 km/h 11.3 km/h 79% 0 mm 0 W/m2
03:13 9.8 °C 6.1 °C 1007 hPa NW 8 km/h 8 km/h 78% 0 mm 0 W/m2
03:19 9.7 °C 6.1 °C 1007 hPa NNW 8 km/h 8 km/h 78% 0 mm 0 W/m2
03:25 9.7 °C 6 °C 1007 hPa SSW 6.4 km/h 8 km/h 78% 0 mm 0 W/m2
03:31 9.7 °C 5.8 °C 1007 hPa WNW 4.8 km/h 8 km/h 77% 0 mm 0 W/m2
03:38 9.6 °C 5.8 °C 1007 hPa WSW 6.4 km/h 9.7 km/h 77% 0 mm 0 W/m2
03:43 9.6 °C 5.9 °C 1007.3 hPa WNW 4.8 km/h 6.4 km/h 78% 0 mm 0 W/m2
03:49 9.6 °C 5.7 °C 1007.3 hPa NW 6.4 km/h 6.4 km/h 77% 0 mm 0 W/m2
03:55 9.6 °C 5.7 °C 1007.3 hPa NW 8 km/h 8 km/h 77% 0 mm 0 W/m2
04:02 9.4 °C 5.6 °C 1007.3 hPa NNW 6.4 km/h 6.4 km/h 77% 0 mm 0 W/m2
04:08 9.4 °C 5.6 °C 1007.3 hPa WNW 6.4 km/h 14.5 km/h 77% 0 mm 0 W/m2
04:13 9.4 °C 5.6 °C 1007.3 hPa NNW 6.4 km/h 8 km/h 77% 0 mm 0 W/m2
04:19 9.4 °C 5.6 °C 1007.7 hPa NW 4.8 km/h 9.7 km/h 77% 0 mm 0 W/m2
04:25 9.3 °C 5.5 °C 1007.7 hPa NW 4.8 km/h 12.9 km/h 77% 0 mm 0 W/m2
04:32 9.3 °C 5.4 °C 1007.7 hPa WNW 4.8 km/h 9.7 km/h 77% 0 mm 0 W/m2
04:38 9.2 °C 5.4 °C 1007.7 hPa NNW 6.4 km/h 9.7 km/h 77% 0 mm 0 W/m2
04:43 9.2 °C 5.3 °C 1007.7 hPa NW 6.4 km/h 11.3 km/h 77% 0 mm 0 W/m2
04:49 9.1 °C 5.3 °C 1007.7 hPa NW 4.8 km/h 8 km/h 77% 0 mm 0 W/m2
04:55 9.1 °C 5.2 °C 1008 hPa NW 6.4 km/h 11.3 km/h 77% 0 mm 0 W/m2
05:02 9.1 °C 5.2 °C 1008 hPa NW 6.4 km/h 6.4 km/h 77% 0 mm 0 W/m2
05:08 9 °C 5.2 °C 1008 hPa NNW 4.8 km/h 12.9 km/h 77% 0 mm 0 W/m2
05:13 9 °C 5.2 °C 1008 hPa NW 8 km/h 9.7 km/h 77% 0 mm 0 W/m2
05:19 8.9 °C 5.1 °C 1008 hPa NW 6.4 km/h 6.4 km/h 77% 0 mm 0 W/m2
05:25 8.9 °C 5.1 °C 1008 hPa NNW 6.4 km/h 8 km/h 77% 0 mm 0 W/m2
05:32 8.9 °C 5.1 °C 1008 hPa NNW 6.4 km/h 8 km/h 77% 0 mm 0 W/m2
05:38 8.9 °C 5.1 °C 1008.4 hPa NW 4.8 km/h 8 km/h 77% 0 mm 0 W/m2
05:43 8.8 °C 5 °C 1008.4 hPa NNW 4.8 km/h 4.8 km/h 77% 0 mm 0 W/m2
05:49 8.8 °C 5.2 °C 1008.4 hPa NW 6.4 km/h 6.4 km/h 78% 0 mm 0 W/m2
05:55 8.8 °C 4.9 °C 1008.7 hPa NW 6.4 km/h 11.3 km/h 77% 0 mm 0 W/m2
06:02 8.8 °C 4.9 °C 1008.7 hPa WSW 6.4 km/h 8 km/h 77% 0 mm 0 W/m2
06:08 8.8 °C 5.2 °C 1008.7 hPa NNW 6.4 km/h 11.3 km/h 78% 0 mm 0 W/m2
06:13 8.8 °C 5.2 °C 1008.7 hPa NW 6.4 km/h 6.4 km/h 78% 0 mm 5 W/m2
06:19 8.7 °C 5.1 °C 1008.7 hPa NNW 4.8 km/h 6.4 km/h 78% 0 mm 7 W/m2
06:25 8.7 °C 5.1 °C 1008.7 hPa NW 4.8 km/h 9.7 km/h 78% 0 mm 7 W/m2
06:31 8.7 °C 5.1 °C 1009 hPa NNW 4.8 km/h 6.4 km/h 78% 0 mm 11 W/m2
06:38 8.7 °C 5.3 °C 1009 hPa NW 3.2 km/h 6.4 km/h 79% 0 mm 16 W/m2
06:43 8.7 °C 5.2 °C 1009 hPa North 3.2 km/h 6.4 km/h 79% 0 mm 16 W/m2
06:49 8.7 °C 5.2 °C 1009 hPa NNW 6.4 km/h 11.3 km/h 79% 0 mm 23 W/m2
06:55 8.7 °C 5.3 °C 1009 hPa NNW 4.8 km/h 11.3 km/h 79% 0 mm 25 W/m2
07:02 8.7 °C 5.3 °C 1009 hPa NW 4.8 km/h 4.8 km/h 79% 0 mm 37 W/m2
07:08 8.8 °C 5.3 °C 1009 hPa North 3.2 km/h 8 km/h 79% 0 mm 39 W/m2
07:13 8.8 °C 5.3 °C 1009 hPa NW 4.8 km/h 6.4 km/h 79% 0 mm 47 W/m2
07:19 8.8 °C 5.3 °C 1009 hPa WNW 4.8 km/h 6.4 km/h 79% 0 mm 46 W/m2
07:25 8.8 °C 5.3 °C 1009.4 hPa NW 4.8 km/h 8 km/h 79% 0 mm 42 W/m2
07:31 8.8 °C 5.4 °C 1009.4 hPa NNW 3.2 km/h 4.8 km/h 79% 0 mm 42 W/m2
07:38 8.8 °C 5.4 °C 1009.4 hPa NW 3.2 km/h 4.8 km/h 79% 0 mm 51 W/m2
07:43 8.8 °C 5.4 °C 1009.7 hPa NNW 4.8 km/h 4.8 km/h 79% 0 mm 62 W/m2
07:49 8.8 °C 5.4 °C 1009.7 hPa NW 3.2 km/h 3.2 km/h 79% 0 mm 95 W/m2
07:55 8.9 °C 5.7 °C 1009.7 hPa WNW 3.2 km/h 4.8 km/h 80% 0 mm 98 W/m2
08:02 9.1 °C 5.6 °C 1009.7 hPa North 3.2 km/h 9.7 km/h 79% 0 mm 86 W/m2
08:08 9.1 °C 5.6 °C 1009.7 hPa NW 4.8 km/h 9.7 km/h 79% 0 mm 88 W/m2
08:13 9.1 °C 5.7 °C 1009.7 hPa NW 3.2 km/h 8 km/h 79% 0 mm 84 W/m2
08:19 9.1 °C 5.4 °C 1010 hPa NW 4.8 km/h 4.8 km/h 78% 0 mm 123 W/m2
08:25 9.1 °C 5.3 °C 1010 hPa NW 4.8 km/h 6.4 km/h 77% 0 mm 100 W/m2
08:32 9.1 °C 5.2 °C 1010 hPa NW 6.4 km/h 8 km/h 77% 0 mm 123 W/m2
08:38 9.1 °C 5.3 °C 1010 hPa NW 6.4 km/h 8 km/h 77% 0 mm 114 W/m2
08:43 9.2 °C 5.6 °C 1010 hPa NNW 4.8 km/h 6.4 km/h 78% 0 mm 135 W/m2
08:49 9.2 °C 5.4 °C 1010 hPa NW 4.8 km/h 4.8 km/h 77% 0 mm 142 W/m2
08:55 9.3 °C 5.4 °C 1010.4 hPa NNW 4.8 km/h 6.4 km/h 77% 0 mm 130 W/m2
09:02 9.3 °C 5.4 °C 1010.4 hPa NW 4.8 km/h 9.7 km/h 77% 0 mm 139 W/m2
09:08 9.3 °C 5.7 °C 1010 hPa NNW 4.8 km/h 9.7 km/h 78% 0 mm 169 W/m2
09:13 9.3 °C 5.5 °C 1010.4 hPa WNW 4.8 km/h 9.7 km/h 77% 0 mm 178 W/m2
09:19 9.5 °C 5.7 °C 1010.4 hPa NNW 6.4 km/h 6.4 km/h 77% 0 mm 216 W/m2
09:25 9.6 °C 5.6 °C 1010.4 hPa NW 4.8 km/h 6.4 km/h 76% 0 mm 188 W/m2
09:31 9.6 °C 5.6 °C 1010.4 hPa WNW 4.8 km/h 4.8 km/h 76% 0 mm 144 W/m2
09:38 9.5 °C 5.5 °C 1010.7 hPa NW 6.4 km/h 12.9 km/h 76% 0 mm 158 W/m2
09:43 9.6 °C 5.6 °C 1010.7 hPa NW 6.4 km/h 8 km/h 76% 0 mm 213 W/m2
09:49 9.7 °C 5.6 °C 1010.7 hPa NW 6.4 km/h 6.4 km/h 76% 0 mm 243 W/m2
09:55 9.8 °C 5.8 °C 1010.7 hPa NW 4.8 km/h 11.3 km/h 76% 0 mm 209 W/m2
10:02 10 °C 5.9 °C 1010.7 hPa NNW 4.8 km/h 12.9 km/h 76% 0 mm 232 W/m2
10:08 9.9 °C 5.7 °C 1010.7 hPa NW 4.8 km/h 12.9 km/h 75% 0 mm 281 W/m2
10:13 10.1 °C 5.8 °C 1010.7 hPa NW 4.8 km/h 6.4 km/h 75% 0 mm 306 W/m2
10:19 10.2 °C 6 °C 1010.7 hPa NNW 6.4 km/h 8 km/h 75% 0 mm 278 W/m2
10:25 10.2 °C 5.9 °C 1010.7 hPa WNW 8 km/h 8 km/h 75% 0 mm 292 W/m2
10:32 10.3 °C 5.8 °C 1010.7 hPa NW 6.4 km/h 17.7 km/h 74% 0 mm 366 W/m2
10:38 10.4 °C 6.4 °C 1010.7 hPa NW 6.4 km/h 17.7 km/h 76% 0 mm 276 W/m2
10:43 10.6 °C 6.3 °C 1010.7 hPa NW 6.4 km/h 9.7 km/h 75% 0 mm 246 W/m2
10:49 10.3 °C 5.8 °C 1010.7 hPa NNW 9.7 km/h 9.7 km/h 74% 0 mm 239 W/m2
10:55 10.3 °C 5.9 °C 1011.1 hPa NW 8 km/h 12.9 km/h 74% 0 mm 218 W/m2
11:02 10.4 °C 5.9 °C 1011.1 hPa NW 8 km/h 8 km/h 74% 0 mm 216 W/m2
11:08 10.4 °C 6.2 °C 1011.1 hPa NNW 8 km/h 9.7 km/h 75% 0 mm 221 W/m2
11:13 10.6 °C 6.1 °C 1011.1 hPa NW 6.4 km/h 8 km/h 74% 0 mm 248 W/m2
11:19 10.7 °C 6.2 °C 1011.1 hPa NW 4.8 km/h 11.3 km/h 74% 0 mm 302 W/m2
11:25 10.8 °C 6.1 °C 1011.1 hPa NNW 4.8 km/h 11.3 km/h 73% 0 mm 251 W/m2
11:31 10.8 °C 6.5 °C 1011.1 hPa WNW 6.4 km/h 14.5 km/h 75% 0 mm 299 W/m2
11:38 10.9 °C 6.1 °C 1011.1 hPa NW 6.4 km/h 14.5 km/h 72% 0 mm 350 W/m2
11:43 11.3 °C 6.9 °C 1011.1 hPa NNW 4.8 km/h 9.7 km/h 74% 0 mm 418 W/m2
11:49 11.8 °C 6.7 °C 1011.1 hPa WNW 4.8 km/h 4.8 km/h 71% 0 mm 494 W/m2
11:55 11.8 °C 6.7 °C 1011.1 hPa NNE 3.2 km/h 6.4 km/h 71% 0 mm 376 W/m2
12:02 11.7 °C 6.4 °C 1011.4 hPa NNW 3.2 km/h 4.8 km/h 70% 0 mm 383 W/m2
12:08 11.8 °C 6.7 °C 1011.4 hPa NNW 4.8 km/h 11.3 km/h 71% 0 mm 429 W/m2
12:13 12.1 °C 6.7 °C 1011.4 hPa NW 4.8 km/h 4.8 km/h 70% 0 mm 359 W/m2
12:19 12.2 °C 7.1 °C 1011.4 hPa NW 4.8 km/h 4.8 km/h 71% 0 mm 374 W/m2
12:25 12.4 °C 7.3 °C 1011.4 hPa NNW 6.4 km/h 6.4 km/h 71% 0 mm 385 W/m2
12:31 12.7 °C 7.1 °C 1011.4 hPa West 6.4 km/h 11.3 km/h 69% 0 mm 466 W/m2
12:38 12.9 °C 7.6 °C 1011.4 hPa NNW 6.4 km/h 11.3 km/h 70% 0 mm 450 W/m2
12:43 12.9 °C 7.3 °C 1011.4 hPa NNW 6.4 km/h 8 km/h 69% 0 mm 373 W/m2
12:49 12.8 °C 7.2 °C 1011.4 hPa WNW 4.8 km/h 9.7 km/h 69% 0 mm 476 W/m2
12:55 12.6 °C 6.8 °C 1011.1 hPa NW 4.8 km/h 9.7 km/h 68% 0 mm 371 W/m2
13:02 13 °C 6.8 °C 1011.4 hPa NW 4.8 km/h 9.7 km/h 66% 0 mm 497 W/m2
13:08 13.3 °C 7.1 °C 1011.4 hPa WNW 6.4 km/h 9.7 km/h 66% 0 mm 432 W/m2
13:13 13.9 °C 8.3 °C 1011.1 hPa WNW 8 km/h 8 km/h 69% 0 mm 1172 W/m2
13:19 14.6 °C 8.8 °C 1011.4 hPa NW 6.4 km/h 6.4 km/h 68% 0 mm 1130 W/m2
13:25 14.1 °C 7.2 °C 1011.1 hPa West 6.4 km/h 6.4 km/h 63% 0 mm 1132 W/m2
13:32 13.9 °C 6.7 °C 1011.1 hPa NW 6.4 km/h 8 km/h 62% 0 mm 295 W/m2
13:38 14.1 °C 7.8 °C 1011.1 hPa NNW 6.4 km/h 16.1 km/h 66% 0 mm 1083 W/m2
13:45 14.5 °C 7.6 °C 1011.1 hPa NW 6.4 km/h 6.4 km/h 63% 0 mm 1104 W/m2
13:51 14.3 °C 7.1 °C 1011.1 hPa North 6.4 km/h 11.3 km/h 62% 0 mm 1183 W/m2
13:58 14.3 °C 7.8 °C 1011.1 hPa West 8 km/h 11.3 km/h 65% 0 mm 1004 W/m2
14:03 14.6 °C 8.1 °C 1011.4 hPa WNW 6.4 km/h 14.5 km/h 65% 0 mm 1058 W/m2
14:09 14 °C 7.5 °C 1011.4 hPa WNW 8 km/h 8 km/h 65% 0 mm 206 W/m2
14:15 15 °C 8.7 °C 1011.4 hPa NNW 8 km/h 12.9 km/h 66% 0 mm 244 W/m2
14:22 14.6 °C 7.9 °C 1011.4 hPa North 8 km/h 16.1 km/h 64% 0 mm 990 W/m2
14:28 14.6 °C 7.1 °C 1011.4 hPa NW 8 km/h 16.1 km/h 61% 0 mm 1041 W/m2
14:33 14.8 °C 8.1 °C 1011.4 hPa WNW 6.4 km/h 8 km/h 64% 0 mm 942 W/m2
14:39 14.9 °C 7.2 °C 1011.4 hPa WNW 6.4 km/h 6.4 km/h 60% 0 mm 937 W/m2
14:45 15.2 °C 8 °C 1011.4 hPa NNW 6.4 km/h 11.3 km/h 62% 0 mm 953 W/m2
14:51 15.7 °C 9.1 °C 1011.4 hPa West 6.4 km/h 9.7 km/h 65% 0 mm 935 W/m2
14:58 15.4 °C 8.7 °C 1011.7 hPa NNW 6.4 km/h 12.9 km/h 64% 0 mm 1030 W/m2
15:03 15.1 °C 8.1 °C 1011.7 hPa NNW 8 km/h 8 km/h 63% 0 mm 956 W/m2
15:09 15.6 °C 8.1 °C 1011.7 hPa NNW 8 km/h 8 km/h 61% 0 mm 882 W/m2
15:15 15.6 °C 7.8 °C 1011.7 hPa WNW 6.4 km/h 9.7 km/h 60% 0 mm 872 W/m2
15:21 15.2 °C 7.3 °C 1011.4 hPa NNW 8 km/h 11.3 km/h 59% 0 mm 849 W/m2
15:28 15.4 °C 7.2 °C 1011.4 hPa WNW 8 km/h 11.3 km/h 58% 0 mm 833 W/m2
15:33 15.7 °C 7.4 °C 1011.4 hPa NW 6.4 km/h 6.4 km/h 58% 0 mm 810 W/m2
15:39 16.3 °C 8.7 °C 1011.4 hPa NW 4.8 km/h 4.8 km/h 61% 0 mm 782 W/m2
15:45 16.1 °C 7.6 °C 1011.4 hPa NW 4.8 km/h 8 km/h 57% 0 mm 761 W/m2
15:51 15.9 °C 7.6 °C 1011.4 hPa NW 4.8 km/h 6.4 km/h 58% 0 mm 745 W/m2
15:58 15.8 °C 7.5 °C 1011.4 hPa NW 6.4 km/h 8 km/h 58% 0 mm 742 W/m2
16:03 15.9 °C 7.9 °C 1011.4 hPa NW 8 km/h 8 km/h 59% 0 mm 714 W/m2
16:09 16.1 °C 8.1 °C 1011.4 hPa NW 6.4 km/h 6.4 km/h 59% 0 mm 701 W/m2
16:15 16.3 °C 7.6 °C 1011.4 hPa NNW 4.8 km/h 12.9 km/h 56% 0 mm 687 W/m2
16:22 16.4 °C 7.8 °C 1011.1 hPa NW 4.8 km/h 12.9 km/h 57% 0 mm 668 W/m2
16:28 16.4 °C 7.1 °C 1011.4 hPa WNW 6.4 km/h 12.9 km/h 54% 0 mm 656 W/m2
16:33 16.6 °C 7.8 °C 1011.1 hPa NW 4.8 km/h 9.7 km/h 56% 0 mm 638 W/m2
16:39 16.9 °C 7.8 °C 1011.1 hPa NW 4.8 km/h 4.8 km/h 55% 0 mm 621 W/m2
16:48 16.9 °C 7.6 °C 1011.1 hPa WNW 4.8 km/h 9.7 km/h 54% 0 mm 599 W/m2
16:53 16.7 °C 7.8 °C 1011.4 hPa NW 4.8 km/h 6.4 km/h 56% 0 mm 529 W/m2
16:59 16.5 °C 7.2 °C 1011.4 hPa NW 6.4 km/h 6.4 km/h 54% 0 mm 424 W/m2
17:05 16.4 °C 7.4 °C 1011.1 hPa NW 4.8 km/h 6.4 km/h 55% 0 mm 118 W/m2
17:11 16.5 °C 7.2 °C 1011.4 hPa West 4.8 km/h 6.4 km/h 54% 0 mm 135 W/m2
17:18 16.5 °C 7.2 °C 1011.4 hPa NNW 6.4 km/h 6.4 km/h 54% 0 mm 42 W/m2
17:23 16.4 °C 7.3 °C 1011.4 hPa West 6.4 km/h 8 km/h 55% 0 mm 44 W/m2
17:29 16.4 °C 7.6 °C 1011.4 hPa NW 4.8 km/h 6.4 km/h 56% 0 mm 42 W/m2
17:35 16.5 °C 7.2 °C 1011.4 hPa NW 4.8 km/h 8 km/h 54% 0 mm 40 W/m2
17:41 16.4 °C 7.3 °C 1011.7 hPa NW 6.4 km/h 12.9 km/h 55% 0 mm 40 W/m2
17:48 16.2 °C 7.1 °C 1011.7 hPa NW 8 km/h 12.9 km/h 55% 0 mm 37 W/m2
17:53 16.2 °C 7.4 °C 1011.7 hPa NW 8 km/h 8 km/h 56% 0 mm 35 W/m2
17:59 16.3 °C 7.2 °C 1011.7 hPa NW 6.4 km/h 6.4 km/h 55% 0 mm 35 W/m2
18:05 16.3 °C 7.8 °C 1011.7 hPa NNW 6.4 km/h 6.4 km/h 57% 0 mm 35 W/m2
18:12 16.3 °C 7.6 °C 1011.7 hPa NW 4.8 km/h 6.4 km/h 56% 0 mm 35 W/m2
18:18 16.3 °C 7.3 °C 1011.7 hPa NW 4.8 km/h 6.4 km/h 55% 0 mm 33 W/m2
18:23 16.4 °C 7.3 °C 1011.7 hPa NW 4.8 km/h 12.9 km/h 55% 0 mm 33 W/m2
18:29 16.3 °C 7.3 °C 1011.7 hPa NW 4.8 km/h 11.3 km/h 55% 0 mm 32 W/m2
18:35 16.2 °C 7.2 °C 1011.7 hPa NW 4.8 km/h 11.3 km/h 55% 0 mm 33 W/m2
18:42 16.2 °C 7.4 °C 1011.7 hPa NW 4.8 km/h 6.4 km/h 56% 0 mm 30 W/m2
18:48 16.1 °C 7.3 °C 1011.7 hPa NW 4.8 km/h 6.4 km/h 56% 0 mm 33 W/m2
18:53 16.1 °C 7.1 °C 1011.7 hPa WSW 4.8 km/h 6.4 km/h 55% 0 mm 28 W/m2
18:59 16.2 °C 7.1 °C 1011.7 hPa WNW 3.2 km/h 3.2 km/h 55% 0 mm 26 W/m2
19:05 16.2 °C 7.1 °C 1011.7 hPa NNW 3.2 km/h 11.3 km/h 55% 0 mm 28 W/m2
19:12 16.1 °C 7 °C 1011.7 hPa NW 3.2 km/h 4.8 km/h 55% 0 mm 30 W/m2
19:18 15.9 °C 6.9 °C 1012.1 hPa NW 4.8 km/h 4.8 km/h 55% 0 mm 23 W/m2
19:23 15.8 °C 7.1 °C 1012.1 hPa NW 4.8 km/h 6.4 km/h 56% 0 mm 42 W/m2
19:29 15.7 °C 7.2 °C 1012.4 hPa NW 3.2 km/h 3.2 km/h 57% 0 mm 21 W/m2
19:35 15.6 °C 7.1 °C 1012.4 hPa WNW 3.2 km/h 3.2 km/h 57% 0 mm 19 W/m2
19:41 15.5 °C 7 °C 1012.4 hPa NW 4.8 km/h 4.8 km/h 57% 0 mm 19 W/m2
19:48 15.4 °C 6.7 °C 1012.4 hPa NW 3.2 km/h 4.8 km/h 56% 0 mm 16 W/m2
19:53 15.3 °C 6.8 °C 1012.4 hPa NW 3.2 km/h 4.8 km/h 57% 0 mm 12 W/m2
19:59 15.2 °C 6.7 °C 1012.4 hPa NNW 3.2 km/h 3.2 km/h 57% 0 mm 11 W/m2
20:05 15.1 °C 6.8 °C 1012.4 hPa WNW 3.2 km/h 3.2 km/h 58% 0 mm 9 W/m2
20:11 14.8 °C 7.1 °C 1012.4 hPa WNW 1.6 km/h 3.2 km/h 60% 0 mm 7 W/m2
20:18 14.7 °C 7 °C 1012.4 hPa WNW 1.6 km/h 3.2 km/h 60% 0 mm 5 W/m2
20:23 14.6 °C 6.9 °C 1012.4 hPa WNW 1.6 km/h 1.6 km/h 60% 0 mm 0 W/m2
20:29 14.3 °C 6.8 °C 1012.4 hPa Calm     61% 0 mm 0 W/m2
20:35 14 °C 6.8 °C 1012.4 hPa Calm     62% 0 mm 0 W/m2
20:42 13.7 °C 6.8 °C 1012.4 hPa Calm   1.6 km/h 63% 0 mm 0 W/m2
20:48 13.6 °C 6.9 °C 1012.4 hPa Calm   1.6 km/h 64% 0 mm 0 W/m2
20:53 13.5 °C 6.8 °C 1012.4 hPa Calm   3.2 km/h 64% 0 mm 0 W/m2
20:59 13.4 °C 6.7 °C 1012.4 hPa Calm   1.6 km/h 64% 0 mm 0 W/m2
21:05 13.2 °C 6.8 °C 1012.4 hPa Calm   4.8 km/h 65% 0 mm 0 W/m2
21:12 13.2 °C 6.7 °C 1012.4 hPa Calm   1.6 km/h 65% 0 mm 0 W/m2
21:18 13.1 °C 6.6 °C 1012.8 hPa Calm   1.6 km/h 65% 0 mm 0 W/m2
21:23 12.9 °C 6.5 °C 1012.8 hPa Calm     65% 0 mm 0 W/m2
21:29 12.8 °C 6.6 °C 1012.8 hPa Calm     66% 0 mm 0 W/m2
21:35 12.7 °C 6.5 °C 1012.8 hPa Calm     66% 0 mm 0 W/m2
21:41 12.7 °C 6.7 °C 1013.1 hPa Calm     67% 0 mm 0 W/m2
21:48 12.6 °C 6.4 °C 1013.4 hPa Calm   1.6 km/h 66% 0 mm 0 W/m2
21:53 12.5 °C 6.6 °C 1013.4 hPa Calm     67% 0 mm 0 W/m2
21:59 12.4 °C 6.4 °C 1013.4 hPa Calm     67% 0 mm 0 W/m2
22:05 12.4 °C 6.4 °C 1013.4 hPa Calm   1.6 km/h 67% 0 mm 0 W/m2
22:12 12.3 °C 6.3 °C 1013.4 hPa Calm     67% 0 mm 0 W/m2
22:18 12.2 °C 6.5 °C 1013.4 hPa Calm     68% 0 mm 0 W/m2
22:23 12.1 °C 6.4 °C 1013.4 hPa Calm     68% 0 mm 0 W/m2
22:29 12 °C 6.3 °C 1013.4 hPa Calm     68% 0 mm 0 W/m2
22:35 11.9 °C 6.2 °C 1013.4 hPa Calm     68% 0 mm 0 W/m2
22:41 12 °C 6.5 °C 1013.4 hPa Calm   1.6 km/h 69% 0 mm 0 W/m2
22:48 11.9 °C 6.2 °C 1013.4 hPa Calm   1.6 km/h 68% 0 mm 0 W/m2
22:53 11.9 °C 6.4 °C 1013.4 hPa Calm   3.2 km/h 69% 0 mm 0 W/m2
22:59 11.9 °C 6.4 °C 1013.4 hPa WNW 1.6 km/h 1.6 km/h 69% 0 mm 0 W/m2
23:05 11.8 °C 6.3 °C 1013.4 hPa Calm   4.8 km/h 69% 0 mm 0 W/m2
23:11 11.8 °C 6.3 °C 1013.8 hPa Calm     69% 0 mm 0 W/m2
23:18 11.7 °C 6.2 °C 1013.8 hPa Calm     69% 0 mm 0 W/m2
23:23 11.8 °C 6.3 °C 1013.8 hPa Calm   1.6 km/h 69% 0 mm 0 W/m2
23:29 11.7 °C 6.4 °C 1013.8 hPa Calm     70% 0 mm 0 W/m2
23:35 11.4 °C 6.2 °C 1013.8 hPa Calm     70% 0 mm 0 W/m2
23:42 11.3 °C 6.2 °C 1013.8 hPa Calm     71% 0 mm 0 W/m2
23:48 11.2 °C 6.1 °C 1013.8 hPa Calm     71% 0 mm 0 W/m2
23:53 11.1 °C 6 °C 1013.8 hPa Calm     71% 0 mm 0 W/m2
23:59 10.9 °C 5.9 °C 1013.4 hPa Calm     71% 0 mm 0 W/m2
Country Meadow, Clay, NY, USA
Compliments of Weather Underground - 2 mb